Time,TemperatureF,DewpointF,PressureIn,WindDirection,WindDirectionDegrees,WindSpeedMPH,WindSpeedGustMPH,Humidity,HourlyPrecipIn,Conditions,Clouds,dailyrainin,SoftwareType,DateUTC
2013-04-17 00:00:00,57.6,47.9,29.74,WSW,254,4.9,11.4,70,0.00,,,0.00,VWS V14.01,2013-04-17 04:00:00,
2013-04-17 00:05:00,57.6,47.9,29.74,West,260,4.0,4.0,70,0.00,,,0.00,VWS V14.01,2013-04-17 04:05:00,
2013-04-17 00:10:00,57.6,47.9,29.74,WNW,303,3.1,5.4,70,0.00,,,0.00,VWS V14.01,2013-04-17 04:10:00,
2013-04-17 00:15:00,57.6,47.9,29.74,South,189,6.3,8.7,70,0.00,,,0.00,VWS V14.01,2013-04-17 04:15:00,
2013-04-17 00:20:00,57.7,48.0,29.74,WNW,282,3.6,5.8,70,0.00,,,0.00,VWS V14.01,2013-04-17 04:20:00,
2013-04-17 00:25:00,57.7,47.7,29.74,WSW,256,5.8,5.8,69,0.00,,,0.00,VWS V14.01,2013-04-17 04:25:00,
2013-04-17 00:30:00,57.7,48.0,29.74,WNW,300,5.4,5.4,70,0.00,,,0.00,VWS V14.01,2013-04-17 04:30:00,
2013-04-17 00:35:00,57.7,48.0,29.74,West,273,7.6,7.6,70,0.00,,,0.00,VWS V14.01,2013-04-17 04:35:00,
2013-04-17 00:40:00,57.7,48.0,29.74,WNW,285,8.3,8.3,70,0.00,,,0.00,VWS V14.01,2013-04-17 04:40:00,
2013-04-17 00:45:00,57.6,47.9,29.74,WNW,287,7.2,7.2,70,0.00,,,0.00,VWS V14.01,2013-04-17 04:45:00,
2013-04-17 00:50:00,57.7,48.0,29.74,WSW,247,12.8,12.8,70,0.00,,,0.00,VWS V14.01,2013-04-17 04:50:00,
2013-04-17 00:55:00,57.7,48.0,29.74,WSW,246,3.1,5.8,70,0.00,,,0.00,VWS V14.01,2013-04-17 04:55:00,
2013-04-17 01:00:00,57.6,47.9,29.74,WNW,303,4.0,4.0,70,0.00,,,0.00,VWS V14.01,2013-04-17 05:00:00,
2013-04-17 01:05:00,57.6,48.2,29.74,WSW,252,3.6,3.6,71,0.00,,,0.00,VWS V14.01,2013-04-17 05:05:00,
2013-04-17 01:10:00,57.6,48.2,29.77,WSW,243,5.4,5.4,71,0.00,,,0.00,VWS V14.01,2013-04-17 05:10:00,
2013-04-17 01:15:00,57.6,48.2,29.77,WNW,297,2.7,6.3,71,0.00,,,0.00,VWS V14.01,2013-04-17 05:15:00,
2013-04-17 01:20:00,57.6,48.2,29.77,NW,304,2.7,3.1,71,0.00,,,0.00,VWS V14.01,2013-04-17 05:20:00,
2013-04-17 01:25:00,57.4,48.4,29.77,WNW,291,2.7,2.7,72,0.00,,,0.00,VWS V14.01,2013-04-17 05:25:00,
2013-04-17 01:30:00,57.4,48.8,29.77,WNW,292,2.7,3.6,73,0.00,,,0.00,VWS V14.01,2013-04-17 05:30:00,
2013-04-17 01:35:00,57.2,48.6,29.77,WNW,290,2.2,2.2,73,0.00,,,0.00,VWS V14.01,2013-04-17 05:35:00,
2013-04-17 01:40:00,57.2,49.0,29.77,WNW,285,2.2,2.2,74,0.00,,,0.00,VWS V14.01,2013-04-17 05:40:00,
2013-04-17 01:45:00,57.4,49.2,29.77,WNW,291,6.3,6.3,74,0.00,,,0.00,VWS V14.01,2013-04-17 05:45:00,
2013-04-17 01:50:00,57.2,49.7,29.77,West,268,0.0,0.0,76,0.00,,,0.00,VWS V14.01,2013-04-17 05:50:00,
2013-04-17 01:55:00,57.2,50.1,29.77,West,274,2.7,2.7,77,0.00,,,0.00,VWS V14.01,2013-04-17 05:55:00,
2013-04-17 02:00:00,57.2,50.4,29.77,West,265,0.0,0.0,78,0.00,,,0.00,VWS V14.01,2013-04-17 06:00:00,
2013-04-17 02:05:00,57.0,50.9,29.77,WNW,297,0.0,2.7,80,0.00,,,0.00,VWS V14.01,2013-04-17 06:05:00,
2013-04-17 02:10:00,57.0,51.3,29.77,WNW,289,0.0,0.0,81,0.00,,,0.00,VWS V14.01,2013-04-17 06:10:00,
2013-04-17 02:15:00,57.2,51.4,29.77,NW,316,2.2,2.2,81,0.00,,,0.00,VWS V14.01,2013-04-17 06:15:00,
2013-04-17 02:20:00,57.2,51.4,29.77,WNW,282,0.0,2.7,81,0.00,,,0.00,VWS V14.01,2013-04-17 06:20:00,
2013-04-17 02:25:00,57.2,51.4,29.77,West,277,2.7,2.7,81,0.00,,,0.00,VWS V14.01,2013-04-17 06:25:00,
2013-04-17 02:30:00,57.2,51.4,29.77,NNW,331,3.6,3.6,81,0.00,,,0.00,VWS V14.01,2013-04-17 06:30:00,
2013-04-17 02:35:00,57.2,51.4,29.77,WNW,294,2.7,2.7,81,0.00,,,0.00,VWS V14.01,2013-04-17 06:35:00,
2013-04-17 02:40:00,57.2,51.4,29.77,WNW,293,0.0,0.0,81,0.00,,,0.00,VWS V14.01,2013-04-17 06:40:00,
2013-04-17 02:45:00,57.4,51.6,29.77,WNW,294,0.0,0.0,81,0.00,,,0.00,VWS V14.01,2013-04-17 06:45:00,
2013-04-17 02:50:00,57.4,51.6,29.77,NW,309,2.7,2.7,81,0.00,,,0.00,VWS V14.01,2013-04-17 06:50:00,
2013-04-17 02:55:00,57.4,51.9,29.77,WNW,287,2.2,3.1,82,0.00,,,0.00,VWS V14.01,2013-04-17 06:55:00,
2013-04-17 03:00:00,57.4,52.3,29.77,West,278,0.0,0.0,83,0.00,,,0.00,VWS V14.01,2013-04-17 07:00:00,
2013-04-17 03:05:00,57.4,52.6,29.77,WNW,287,0.0,5.8,84,0.00,,,0.00,VWS V14.01,2013-04-17 07:05:00,
2013-04-17 03:10:00,57.4,52.6,29.77,WNW,287,0.0,0.0,84,0.00,,,0.00,VWS V14.01,2013-04-17 07:10:00,
2013-04-17 03:15:00,57.4,52.9,29.77,WNW,292,3.1,3.1,85,0.00,,,0.00,VWS V14.01,2013-04-17 07:15:00,
2013-04-17 03:20:00,57.4,52.9,29.77,West,260,0.0,0.0,85,0.00,,,0.00,VWS V14.01,2013-04-17 07:20:00,
2013-04-17 03:25:00,57.4,52.9,29.77,West,279,3.1,3.1,85,0.00,,,0.00,VWS V14.01,2013-04-17 07:25:00,
2013-04-17 03:30:00,57.4,53.2,29.77,West,272,0.0,0.0,86,0.00,,,0.00,VWS V14.01,2013-04-17 07:30:00,
2013-04-17 03:34:00,57.2,53.1,29.77,West,272,0.0,0.0,86,0.00,,,0.00,VWS V14.01,2013-04-17 07:34:00,
2013-04-17 03:40:00,57.2,53.1,29.77,West,272,0.0,0.0,86,0.00,,,0.00,VWS V14.01,2013-04-17 07:40:00,
2013-04-17 03:45:00,57.2,53.1,29.77,West,272,0.0,0.0,86,0.00,,,0.00,VWS V14.01,2013-04-17 07:45:00,
2013-04-17 03:50:00,57.2,53.1,29.77,West,272,0.0,0.0,86,0.00,,,0.00,VWS V14.01,2013-04-17 07:50:00,
2013-04-17 03:54:00,57.2,53.4,29.77,West,274,0.0,0.0,87,0.00,,,0.00,VWS V14.01,2013-04-17 07:54:00,
2013-04-17 03:59:00,57.2,53.4,29.77,West,274,0.0,0.0,87,0.00,,,0.00,VWS V14.01,2013-04-17 07:59:00,
2013-04-17 04:04:00,57.2,53.7,29.77,West,274,0.0,0.0,88,0.00,,,0.00,VWS V14.01,2013-04-17 08:04:00,
2013-04-17 04:10:00,57.2,53.7,29.77,West,274,0.0,0.0,88,0.00,,,0.00,VWS V14.01,2013-04-17 08:10:00,
2013-04-17 04:14:00,57.0,53.8,29.77,WNW,300,0.0,0.0,89,0.00,,,0.00,VWS V14.01,2013-04-17 08:14:00,
2013-04-17 04:19:00,56.5,52.7,29.77,NNW,330,0.0,0.0,87,0.00,,,0.00,VWS V14.01,2013-04-17 08:19:00,
2013-04-17 04:24:00,56.3,49.5,29.77,WNW,298,0.0,0.0,78,0.00,,,0.00,VWS V14.01,2013-04-17 08:24:00,
2013-04-17 04:29:00,56.3,49.2,29.77,West,271,0.0,0.0,77,0.00,,,0.00,VWS V14.01,2013-04-17 08:29:00,
2013-04-17 04:34:00,55.9,45.9,29.77,WNW,289,0.0,0.0,69,0.00,,,0.00,VWS V14.01,2013-04-17 08:34:00,
2013-04-17 04:39:00,55.9,45.5,29.77,WNW,284,0.0,0.0,68,0.00,,,0.00,VWS V14.01,2013-04-17 08:39:00,
2013-04-17 04:44:00,55.9,42.7,29.77,NW,313,0.0,2.7,61,0.00,,,0.00,VWS V14.01,2013-04-17 08:44:00,
2013-04-17 04:49:00,55.8,41.2,29.77,NW,305,0.0,2.7,58,0.00,,,0.00,VWS V14.01,2013-04-17 08:49:00,
2013-04-17 04:54:00,55.6,41.9,29.77,NNW,341,0.0,0.0,60,0.00,,,0.00,VWS V14.01,2013-04-17 08:54:00,
2013-04-17 04:59:00,55.2,39.8,29.77,WSW,254,0.0,0.0,56,0.00,,,0.00,VWS V14.01,2013-04-17 08:59:00,
2013-04-17 05:04:00,55.2,39.8,29.77,WNW,303,0.0,0.0,56,0.00,,,0.00,VWS V14.01,2013-04-17 09:04:00,
2013-04-17 05:09:00,55.0,39.7,29.77,NNW,340,0.0,0.0,56,0.00,,,0.00,VWS V14.01,2013-04-17 09:09:00,
2013-04-17 05:14:00,54.9,38.5,29.77,West,259,0.0,3.6,54,0.00,,,0.00,VWS V14.01,2013-04-17 09:14:00,
2013-04-17 05:19:00,54.5,38.2,29.77,WNW,285,0.0,0.0,54,0.00,,,0.00,VWS V14.01,2013-04-17 09:19:00,
2013-04-17 05:24:00,54.5,37.7,29.77,WNW,300,0.0,2.2,53,0.00,,,0.00,VWS V14.01,2013-04-17 09:24:00,
2013-04-17 05:29:00,54.3,37.6,29.80,West,280,0.0,2.2,53,0.00,,,0.00,VWS V14.01,2013-04-17 09:29:00,
2013-04-17 05:34:00,54.1,36.9,29.80,WNW,297,0.0,3.1,52,0.00,,,0.00,VWS V14.01,2013-04-17 09:34:00,
2013-04-17 05:39:00,54.1,37.4,29.80,WNW,286,0.0,2.2,53,0.00,,,0.00,VWS V14.01,2013-04-17 09:39:00,
2013-04-17 05:44:00,54.0,37.7,29.77,West,279,0.0,0.0,54,0.00,,,0.00,VWS V14.01,2013-04-17 09:44:00,
2013-04-17 05:49:00,54.0,37.7,29.77,WNW,299,0.0,0.0,54,0.00,,,0.00,VWS V14.01,2013-04-17 09:49:00,
2013-04-17 05:54:00,53.8,37.5,29.77,NE,52,0.0,0.0,54,0.00,,,0.00,VWS V14.01,2013-04-17 09:54:00,
2013-04-17 05:59:00,53.6,37.4,29.80,WNW,303,0.0,0.0,54,0.00,,,0.00,VWS V14.01,2013-04-17 09:59:00,
2013-04-17 06:04:00,53.4,37.7,29.80,West,280,0.0,0.0,55,0.00,,,0.00,VWS V14.01,2013-04-17 10:04:00,
2013-04-17 06:09:00,53.2,38.0,29.80,NW,304,0.0,0.0,56,0.00,,,0.00,VWS V14.01,2013-04-17 10:09:00,
2013-04-17 06:14:00,53.1,37.8,29.80,WNW,287,0.0,0.0,56,0.00,,,0.00,VWS V14.01,2013-04-17 10:14:00,
2013-04-17 06:19:00,53.1,38.2,29.80,NW,318,0.0,0.0,57,0.00,,,0.00,VWS V14.01,2013-04-17 10:19:00,
2013-04-17 06:24:00,52.9,38.1,29.80,NW,318,0.0,0.0,57,0.00,,,0.00,VWS V14.01,2013-04-17 10:24:00,
2013-04-17 06:29:00,52.7,38.3,29.80,South,190,0.0,0.0,58,0.00,,,0.00,VWS V14.01,2013-04-17 10:29:00,
2013-04-17 06:34:00,52.5,38.2,29.80,South,190,0.0,0.0,58,0.00,,,0.00,VWS V14.01,2013-04-17 10:34:00,
2013-04-17 06:39:00,52.3,38.5,29.80,South,190,0.0,0.0,59,0.00,,,0.00,VWS V14.01,2013-04-17 10:39:00,
2013-04-17 06:44:00,52.2,38.3,29.80,South,190,0.0,0.0,59,0.00,,,0.00,VWS V14.01,2013-04-17 10:44:00,
2013-04-17 06:49:00,52.0,38.1,29.80,South,190,0.0,0.0,59,0.00,,,0.00,VWS V14.01,2013-04-17 10:49:00,
2013-04-17 06:54:00,52.0,38.5,29.80,South,190,0.0,0.0,60,0.00,,,0.00,VWS V14.01,2013-04-17 10:54:00,
2013-04-17 06:59:00,52.0,38.5,29.80,South,190,0.0,0.0,60,0.00,,,0.00,VWS V14.01,2013-04-17 10:59:00,
2013-04-17 07:04:00,52.2,38.7,29.80,South,188,0.0,0.0,60,0.00,,,0.00,VWS V14.01,2013-04-17 11:04:00,
2013-04-17 07:09:00,52.5,39.0,29.80,SSW,196,0.0,0.0,60,0.00,,,0.00,VWS V14.01,2013-04-17 11:09:00,
2013-04-17 07:14:00,53.1,39.6,29.83,SSW,196,0.0,0.0,60,0.00,,,0.00,VWS V14.01,2013-04-17 11:14:00,
2013-04-17 07:19:00,53.2,38.9,29.83,SSW,199,0.0,0.0,58,0.00,,,0.00,VWS V14.01,2013-04-17 11:19:00,
2013-04-17 07:24:00,53.4,38.6,29.83,NW,307,0.0,0.0,57,0.00,,,0.00,VWS V14.01,2013-04-17 11:24:00,
2013-04-17 07:29:00,53.6,38.3,29.83,North,2,0.0,0.0,56,0.00,,,0.00,VWS V14.01,2013-04-17 11:29:00,
2013-04-17 07:34:00,54.1,37.9,29.83,WSW,251,0.0,0.0,54,0.00,,,0.00,VWS V14.01,2013-04-17 11:34:00,
2013-04-17 07:39:00,54.3,37.6,29.83,WSW,237,2.7,4.0,53,0.00,,,0.00,VWS V14.01,2013-04-17 11:39:00,
2013-04-17 07:44:00,54.5,36.3,29.83,NNW,333,0.0,0.0,50,0.00,,,0.00,VWS V14.01,2013-04-17 11:44:00,
2013-04-17 07:49:00,54.9,36.6,29.83,South,191,0.0,0.0,50,0.00,,,0.00,VWS V14.01,2013-04-17 11:49:00,
2013-04-17 07:54:00,55.2,36.9,29.83,NNE,33,0.0,0.0,50,0.00,,,0.00,VWS V14.01,2013-04-17 11:54:00,
2013-04-17 07:59:00,55.6,35.7,29.83,NNW,343,0.0,0.0,47,0.00,,,0.00,VWS V14.01,2013-04-17 11:59:00,
2013-04-17 08:04:00,55.9,35.5,29.83,SW,224,0.0,0.0,46,0.00,,,0.00,VWS V14.01,2013-04-17 12:04:00,
2013-04-17 08:09:00,55.9,35.5,29.83,NW,316,0.0,0.0,46,0.00,,,0.00,VWS V14.01,2013-04-17 12:09:00,
2013-04-17 08:14:00,57.0,35.9,29.85,NNE,23,0.0,0.0,45,0.00,,,0.00,VWS V14.01,2013-04-17 12:14:00,
2013-04-17 08:19:00,57.2,34.9,29.85,SSW,200,0.0,0.0,43,0.00,,,0.00,VWS V14.01,2013-04-17 12:19:00,
2013-04-17 08:24:00,57.4,35.1,29.85,ENE,62,0.0,0.0,43,0.00,,,0.00,VWS V14.01,2013-04-17 12:24:00,
2013-04-17 08:29:00,57.4,34.5,29.85,ENE,61,3.1,3.1,42,0.00,,,0.00,VWS V14.01,2013-04-17 12:29:00,
2013-04-17 08:34:00,57.6,34.7,29.85,WSW,240,0.0,0.0,42,0.00,,,0.00,VWS V14.01,2013-04-17 12:34:00,
2013-04-17 08:39:00,57.9,35.0,29.85,South,180,0.0,0.0,42,0.00,,,0.00,VWS V14.01,2013-04-17 12:39:00,
2013-04-17 08:44:00,58.5,35.5,29.85,ESE,113,0.0,0.0,42,0.00,,,0.00,VWS V14.01,2013-04-17 12:44:00,
2013-04-17 08:49:00,58.8,35.2,29.85,ESE,116,0.0,0.0,41,0.00,,,0.00,VWS V14.01,2013-04-17 12:49:00,
2013-04-17 08:54:00,58.6,34.4,29.85,ESE,111,0.0,0.0,40,0.00,,,0.00,VWS V14.01,2013-04-17 12:54:00,
2013-04-17 08:59:00,58.8,34.6,29.85,SSW,207,2.2,2.7,40,0.00,,,0.00,VWS V14.01,2013-04-17 12:59:00,
2013-04-17 09:04:00,59.2,34.3,29.85,SE,143,0.0,0.0,39,0.00,,,0.00,VWS V14.01,2013-04-17 13:04:00,
2013-04-17 09:09:00,59.4,33.8,29.85,NE,41,0.0,0.0,38,0.00,,,0.00,VWS V14.01,2013-04-17 13:09:00,
2013-04-17 09:14:00,59.4,33.8,29.85,WSW,240,2.2,2.2,38,0.00,,,0.00,VWS V14.01,2013-04-17 13:14:00,
2013-04-17 09:19:00,59.4,33.8,29.85,NE,52,2.2,2.2,38,0.00,,,0.00,VWS V14.01,2013-04-17 13:19:00,
2013-04-17 09:24:00,59.5,33.9,29.85,SE,131,0.0,2.2,38,0.00,,,0.00,VWS V14.01,2013-04-17 13:24:00,
2013-04-17 09:29:00,60.3,33.9,29.85,WNW,294,2.2,3.6,37,0.00,,,0.00,VWS V14.01,2013-04-17 13:29:00,
2013-04-17 09:34:00,60.4,34.1,29.85,SW,231,0.0,0.0,37,0.00,,,0.00,VWS V14.01,2013-04-17 13:34:00,
2013-04-17 09:39:00,60.4,34.1,29.85,NNE,25,0.0,0.0,37,0.00,,,0.00,VWS V14.01,2013-04-17 13:39:00,
2013-04-17 09:44:00,60.4,34.1,29.85,NW,305,0.0,0.0,37,0.00,,,0.00,VWS V14.01,2013-04-17 13:44:00,
2013-04-17 09:49:00,61.0,33.9,29.85,NNE,23,2.2,2.2,36,0.00,,,0.00,VWS V14.01,2013-04-17 13:49:00,
2013-04-17 09:54:00,61.0,33.9,29.85,NE,34,0.0,0.0,36,0.00,,,0.00,VWS V14.01,2013-04-17 13:54:00,
2013-04-17 09:59:00,61.0,33.2,29.85,NNW,338,2.2,2.2,35,0.00,,,0.00,VWS V14.01,2013-04-17 13:59:00,
2013-04-17 10:04:00,60.8,33.0,29.85,WNW,290,0.0,2.7,35,0.00,,,0.00,VWS V14.01,2013-04-17 14:04:00,
2013-04-17 10:09:00,60.8,33.0,29.85,NNE,28,0.0,0.0,35,0.00,,,0.00,VWS V14.01,2013-04-17 14:09:00,
2013-04-17 10:14:00,61.3,33.5,29.85,WNW,287,4.0,4.0,35,0.00,,,0.00,VWS V14.01,2013-04-17 14:14:00,
2013-04-17 10:19:00,61.3,33.5,29.85,SSW,201,0.0,0.0,35,0.00,,,0.00,VWS V14.01,2013-04-17 14:19:00,
2013-04-17 10:24:00,61.5,33.6,29.85,East,87,0.0,0.0,35,0.00,,,0.00,VWS V14.01,2013-04-17 14:24:00,
2013-04-17 10:29:00,61.7,33.1,29.85,North,0,0.0,0.0,34,0.00,,,0.00,VWS V14.01,2013-04-17 14:29:00,
2013-04-17 10:34:00,61.5,33.6,29.85,West,259,2.7,2.7,35,0.00,,,0.00,VWS V14.01,2013-04-17 14:34:00,
2013-04-17 10:39:00,61.7,33.1,29.85,ESE,104,2.7,2.7,34,0.00,,,0.00,VWS V14.01,2013-04-17 14:39:00,
2013-04-17 10:44:00,61.9,34.0,29.85,SW,236,0.0,0.0,35,0.00,,,0.04,VWS V14.01,2013-04-17 14:44:00,
2013-04-17 10:49:00,62.4,33.7,29.85,East,83,0.0,0.0,34,0.00,,,0.00,VWS V14.01,2013-04-17 14:49:00,
2013-04-17 10:54:00,62.6,33.9,29.85,NNW,344,0.0,0.0,34,0.00,,,0.00,VWS V14.01,2013-04-17 14:54:00,
2013-04-17 10:59:00,62.6,33.9,29.85,ENE,72,0.0,0.0,34,0.00,,,0.00,VWS V14.01,2013-04-17 14:59:00,
2013-04-17 11:04:00,62.6,33.1,29.85,WNW,291,2.2,2.2,33,0.00,,,0.00,VWS V14.01,2013-04-17 15:04:00,
2013-04-17 11:09:00,62.8,33.3,29.88,South,178,3.6,3.6,33,0.00,,,0.00,VWS V14.01,2013-04-17 15:09:00,
2013-04-17 11:14:00,63.1,32.8,29.88,West,273,3.1,3.6,32,0.00,,,0.00,VWS V14.01,2013-04-17 15:14:00,
2013-04-17 11:19:00,63.1,32.8,29.88,NE,55,3.1,3.1,32,0.00,,,0.00,VWS V14.01,2013-04-17 15:19:00,
2013-04-17 11:24:00,62.8,31.7,29.88,West,278,0.0,0.0,31,0.00,,,0.00,VWS V14.01,2013-04-17 15:24:00,
2013-04-17 11:29:00,63.0,32.7,29.88,WNW,300,0.0,0.0,32,0.00,,,0.00,VWS V14.01,2013-04-17 15:29:00,
2013-04-17 11:34:00,63.9,33.5,29.88,SSW,198,0.0,0.0,32,0.00,,,0.00,VWS V14.01,2013-04-17 15:34:00,
2013-04-17 11:39:00,64.8,32.6,29.88,SSE,147,2.2,2.2,30,0.00,,,0.00,VWS V14.01,2013-04-17 15:39:00,
2013-04-17 11:44:00,64.9,32.8,29.88,WSW,250,2.7,2.7,30,0.00,,,0.00,VWS V14.01,2013-04-17 15:44:00,
2013-04-17 11:49:00,64.8,31.8,29.88,WSW,248,2.7,2.7,29,0.00,,,0.00,VWS V14.01,2013-04-17 15:49:00,
2013-04-17 11:54:00,63.9,31.9,29.88,WNW,283,0.0,2.7,30,0.00,,,0.00,VWS V14.01,2013-04-17 15:54:00,
2013-04-17 11:59:00,63.5,31.5,29.88,NNE,33,2.7,2.7,30,0.00,,,0.00,VWS V14.01,2013-04-17 15:59:00,
2013-04-17 12:04:00,63.9,31.0,29.88,NW,312,0.0,0.0,29,0.00,,,0.00,VWS V14.01,2013-04-17 16:04:00,
2013-04-17 12:09:00,64.0,30.3,29.88,NW,324,5.4,5.4,28,0.00,,,0.00,VWS V14.01,2013-04-17 16:09:00,
2013-04-17 12:14:00,64.0,30.3,29.88,NW,322,2.7,2.7,28,0.00,,,0.00,VWS V14.01,2013-04-17 16:14:00,
2013-04-17 12:19:00,63.9,30.1,29.85,WSW,237,3.1,3.1,28,0.00,,,0.00,VWS V14.01,2013-04-17 16:19:00,
2013-04-17 12:24:00,64.4,30.6,29.85,WSW,237,3.1,3.1,28,0.00,,,0.00,VWS V14.01,2013-04-17 16:24:00,
2013-04-17 12:29:00,65.1,30.3,29.85,WNW,288,0.0,0.0,27,0.00,,,0.00,VWS V14.01,2013-04-17 16:29:00,
2013-04-17 12:34:00,65.5,30.6,29.85,West,270,3.1,3.1,27,0.00,,,0.00,VWS V14.01,2013-04-17 16:34:00,
2013-04-17 12:39:00,65.5,30.6,29.85,West,270,5.4,5.4,27,0.00,,,0.00,VWS V14.01,2013-04-17 16:39:00,
2013-04-17 12:44:00,64.9,29.3,29.85,NW,313,2.7,2.7,26,0.00,,,0.00,VWS V14.01,2013-04-17 16:44:00,
2013-04-17 12:49:00,64.9,30.2,29.85,South,191,0.0,0.0,27,0.00,,,0.00,VWS V14.01,2013-04-17 16:49:00,
2013-04-17 12:54:00,65.8,30.0,29.85,West,268,7.6,7.6,26,0.00,,,0.00,VWS V14.01,2013-04-17 16:54:00,
2013-04-17 12:59:00,65.8,30.0,29.85,West,265,2.7,2.7,26,0.00,,,0.00,VWS V14.01,2013-04-17 16:59:00,
2013-04-17 13:04:00,66.0,30.2,29.85,NW,308,3.1,3.1,26,0.00,,,0.00,VWS V14.01,2013-04-17 17:04:00,
2013-04-17 13:09:00,65.7,29.9,29.85,NNW,338,0.0,0.0,26,0.00,,,0.00,VWS V14.01,2013-04-17 17:09:00,
2013-04-17 13:14:00,65.8,30.0,29.85,WNW,286,2.7,2.7,26,0.00,,,0.00,VWS V14.01,2013-04-17 17:14:00,
2013-04-17 13:19:00,65.8,29.1,29.85,SW,219,2.2,2.2,25,0.00,,,0.00,VWS V14.01,2013-04-17 17:19:00,
2013-04-17 13:24:00,66.0,29.2,29.85,WNW,298,2.7,2.7,25,0.00,,,0.00,VWS V14.01,2013-04-17 17:24:00,
2013-04-17 13:29:00,66.7,29.8,29.85,East,97,0.0,0.0,25,0.00,,,0.00,VWS V14.01,2013-04-17 17:29:00,
2013-04-17 13:34:00,67.3,30.3,29.85,SW,214,2.7,2.7,25,0.00,,,0.00,VWS V14.01,2013-04-17 17:34:00,
2013-04-17 13:39:00,67.5,30.4,29.85,ESE,115,0.0,0.0,25,0.00,,,0.00,VWS V14.01,2013-04-17 17:39:00,
2013-04-17 13:44:00,67.3,29.3,29.85,ESE,114,0.0,0.0,24,0.00,,,0.00,VWS V14.01,2013-04-17 17:44:00,
2013-04-17 13:49:00,67.5,29.4,29.85,North,353,0.0,0.0,24,0.00,,,0.00,VWS V14.01,2013-04-17 17:49:00,
2013-04-17 13:54:00,66.9,29.0,29.85,NE,41,0.0,0.0,24,0.00,,,0.00,VWS V14.01,2013-04-17 17:54:00,
2013-04-17 13:59:00,67.3,29.3,29.85,WSW,253,0.0,0.0,24,0.00,,,0.00,VWS V14.01,2013-04-17 17:59:00,
2013-04-17 14:04:00,67.6,29.6,29.85,SSW,207,0.0,0.0,24,0.00,,,0.00,VWS V14.01,2013-04-17 18:04:00,
2013-04-17 14:09:00,67.5,29.4,29.85,NNE,26,4.0,4.0,24,0.00,,,0.00,VWS V14.01,2013-04-17 18:09:00,
2013-04-17 14:14:00,67.3,29.3,29.85,East,95,2.2,2.2,24,0.00,,,0.00,VWS V14.01,2013-04-17 18:14:00,
2013-04-17 14:19:00,67.3,29.3,29.85,SW,221,3.1,3.1,24,0.00,,,0.00,VWS V14.01,2013-04-17 18:19:00,
2013-04-17 14:24:00,66.9,29.0,29.85,WSW,252,0.0,0.0,24,0.00,,,0.00,VWS V14.01,2013-04-17 18:24:00,
2013-04-17 14:29:00,67.3,29.3,29.83,WSW,241,2.2,2.2,24,0.00,,,0.00,VWS V14.01,2013-04-17 18:29:00,
2013-04-17 14:34:00,67.6,29.6,29.83,West,269,3.1,4.0,24,0.00,,,0.00,VWS V14.01,2013-04-17 18:34:00,
2013-04-17 14:39:00,67.8,29.7,29.83,WNW,285,0.0,5.4,24,0.00,,,0.00,VWS V14.01,2013-04-17 18:39:00,
2013-04-17 14:44:00,68.0,29.9,29.85,West,264,2.7,3.1,24,0.00,,,0.00,VWS V14.01,2013-04-17 18:44:00,
2013-04-17 14:49:00,68.2,29.0,29.85,East,84,0.0,2.7,23,0.00,,,0.00,VWS V14.01,2013-04-17 18:49:00,
2013-04-17 14:54:00,68.4,29.1,29.85,SE,138,0.0,0.0,23,0.00,,,0.00,VWS V14.01,2013-04-17 18:54:00,
2013-04-17 14:59:00,68.4,29.1,29.85,WNW,294,0.0,0.0,23,0.00,,,0.00,VWS V14.01,2013-04-17 18:59:00,
2013-04-17 15:04:00,68.2,29.0,29.85,SE,127,0.0,0.0,23,0.00,,,0.00,VWS V14.01,2013-04-17 19:04:00,
2013-04-17 15:09:00,67.3,29.3,29.85,WSW,251,0.0,0.0,24,0.00,,,0.00,VWS V14.01,2013-04-17 19:09:00,
2013-04-17 15:14:00,67.8,29.7,29.85,West,267,0.0,0.0,24,0.00,,,0.00,VWS V14.01,2013-04-17 19:14:00,
2013-04-17 15:19:00,68.5,29.3,29.85,SSE,167,0.0,0.0,23,0.00,,,0.00,VWS V14.01,2013-04-17 19:19:00,
2013-04-17 15:24:00,67.6,29.6,29.85,NNE,28,0.0,0.0,24,0.00,,,0.00,VWS V14.01,2013-04-17 19:24:00,
2013-04-17 15:29:00,67.8,29.7,29.85,East,98,0.0,0.0,24,0.00,,,0.00,VWS V14.01,2013-04-17 19:29:00,
2013-04-17 15:34:00,68.2,29.0,29.85,SE,136,2.7,2.7,23,0.00,,,0.00,VWS V14.01,2013-04-17 19:34:00,
2013-04-17 15:39:00,68.0,28.9,29.85,SE,140,0.0,0.0,23,0.00,,,0.00,VWS V14.01,2013-04-17 19:39:00,
2013-04-17 15:44:00,68.2,29.0,29.85,ESE,106,0.0,2.7,23,0.00,,,0.00,VWS V14.01,2013-04-17 19:44:00,
2013-04-17 15:49:00,68.0,28.9,29.85,North,353,0.0,0.0,23,0.00,,,0.00,VWS V14.01,2013-04-17 19:49:00,
2013-04-17 15:54:00,68.0,28.9,29.85,WNW,285,0.0,0.0,23,0.00,,,0.00,VWS V14.01,2013-04-17 19:54:00,
2013-04-17 15:59:00,68.4,29.1,29.85,NW,318,2.2,2.2,23,0.00,,,0.00,VWS V14.01,2013-04-17 19:59:00,
2013-04-17 16:04:00,68.4,29.1,29.85,East,79,0.0,0.0,23,0.00,,,0.00,VWS V14.01,2013-04-17 20:04:00,
2013-04-17 16:09:00,68.2,29.0,29.85,WSW,239,0.0,2.2,23,0.00,,,0.00,VWS V14.01,2013-04-17 20:09:00,
2013-04-17 16:14:00,68.0,28.9,29.85,ENE,78,0.0,2.7,23,0.00,,,0.00,VWS V14.01,2013-04-17 20:14:00,
2013-04-17 16:19:00,68.2,29.0,29.85,West,263,0.0,2.7,23,0.00,,,0.00,VWS V14.01,2013-04-17 20:19:00,
2013-04-17 16:24:00,68.2,29.0,29.85,NE,42,2.7,2.7,23,0.00,,,0.00,VWS V14.01,2013-04-17 20:24:00,
2013-04-17 16:29:00,68.2,29.0,29.85,WNW,288,0.0,4.0,23,0.00,,,0.00,VWS V14.01,2013-04-17 20:29:00,
2013-04-17 16:34:00,67.8,28.7,29.85,ESE,118,0.0,0.0,23,0.00,,,0.00,VWS V14.01,2013-04-17 20:34:00,
2013-04-17 16:39:00,67.5,28.4,29.85,SSE,166,2.7,2.7,23,0.00,,,0.00,VWS V14.01,2013-04-17 20:39:00,
2013-04-17 16:44:00,67.6,28.5,29.85,West,280,2.7,2.7,23,0.00,,,0.00,VWS V14.01,2013-04-17 20:44:00,
2013-04-17 16:49:00,68.0,28.9,29.85,WSW,256,0.0,0.0,23,0.00,,,0.00,VWS V14.01,2013-04-17 20:49:00,
2013-04-17 16:54:00,68.2,29.0,29.88,WNW,286,0.0,2.7,23,0.00,,,0.00,VWS V14.01,2013-04-17 20:54:00,
2013-04-17 16:59:00,67.8,28.7,29.88,West,275,0.0,3.6,23,0.00,,,0.00,VWS V14.01,2013-04-17 20:59:00,
2013-04-17 17:04:00,67.3,28.2,29.88,WSW,244,0.0,0.0,23,0.00,,,0.00,VWS V14.01,2013-04-17 21:04:00,
2013-04-17 17:09:00,67.3,29.3,29.88,WNW,301,4.9,4.9,24,0.00,,,0.00,VWS V14.01,2013-04-17 21:09:00,
2013-04-17 17:14:00,67.5,29.4,29.88,SW,214,0.0,0.0,24,0.00,,,0.00,VWS V14.01,2013-04-17 21:14:00,
2013-04-17 17:19:00,67.3,28.2,29.88,WNW,291,0.0,0.0,23,0.00,,,0.00,VWS V14.01,2013-04-17 21:19:00,
2013-04-17 17:24:00,67.5,28.4,29.88,North,11,0.0,0.0,23,0.00,,,0.00,VWS V14.01,2013-04-17 21:24:00,
2013-04-17 17:29:00,67.5,28.4,29.88,NW,310,0.0,0.0,23,0.00,,,0.00,VWS V14.01,2013-04-17 21:29:00,
2013-04-17 17:34:00,67.8,28.7,29.88,NE,39,0.0,2.7,23,0.00,,,0.00,VWS V14.01,2013-04-17 21:34:00,
2013-04-17 17:39:00,67.6,28.5,29.88,NNE,24,0.0,3.1,23,0.00,,,0.00,VWS V14.01,2013-04-17 21:39:00,
2013-04-17 17:44:00,67.1,28.1,29.88,East,82,2.7,3.1,23,0.00,,,0.00,VWS V14.01,2013-04-17 21:44:00,
2013-04-17 17:49:00,66.9,27.9,29.88,North,0,0.0,0.0,23,0.00,,,0.00,VWS V14.01,2013-04-17 21:49:00,
2013-04-17 17:54:00,66.9,27.9,29.88,SSW,209,0.0,0.0,23,0.00,,,0.00,VWS V14.01,2013-04-17 21:54:00,
2013-04-17 17:59:00,66.7,27.8,29.88,ENE,75,0.0,0.0,23,0.00,,,0.00,VWS V14.01,2013-04-17 21:59:00,
2013-04-17 18:04:00,66.6,27.6,29.88,West,268,0.0,0.0,23,0.00,,,0.00,VWS V14.01,2013-04-17 22:04:00,
2013-04-17 18:09:00,66.2,27.3,29.88,SE,124,0.0,0.0,23,0.00,,,0.00,VWS V14.01,2013-04-17 22:09:00,
2013-04-17 18:14:00,66.0,28.2,29.88,NE,51,0.0,0.0,24,0.00,,,0.00,VWS V14.01,2013-04-17 22:14:00,
2013-04-17 18:19:00,65.8,28.1,29.88,West,266,2.2,2.7,24,0.00,,,0.00,VWS V14.01,2013-04-17 22:19:00,
2013-04-17 18:24:00,65.5,27.8,29.88,NNE,32,0.0,0.0,24,0.00,,,0.00,VWS V14.01,2013-04-17 22:24:00,
2013-04-17 18:29:00,65.1,27.5,29.91,West,280,0.0,0.0,24,0.00,,,0.00,VWS V14.01,2013-04-17 22:29:00,
2013-04-17 18:34:00,64.8,27.2,29.91,West,263,0.0,0.0,24,0.00,,,0.00,VWS V14.01,2013-04-17 22:34:00,
2013-04-17 18:39:00,64.4,26.9,29.91,SSW,209,0.0,0.0,24,0.00,,,0.00,VWS V14.01,2013-04-17 22:39:00,
2013-04-17 18:44:00,63.9,26.4,29.91,West,271,4.0,4.0,24,0.00,,,0.00,VWS V14.01,2013-04-17 22:44:00,
2013-04-17 18:49:00,63.5,26.1,29.91,SSE,167,0.0,0.0,24,0.00,,,0.00,VWS V14.01,2013-04-17 22:49:00,
2013-04-17 18:54:00,63.3,25.9,29.91,East,79,0.0,0.0,24,0.00,,,0.00,VWS V14.01,2013-04-17 22:54:00,
2013-04-17 18:59:00,63.0,25.6,29.91,East,79,0.0,0.0,24,0.00,,,0.00,VWS V14.01,2013-04-17 22:59:00,
2013-04-17 19:04:00,62.8,25.5,29.91,West,267,0.0,0.0,24,0.00,,,0.00,VWS V14.01,2013-04-17 23:04:00,
2013-04-17 19:08:00,62.6,25.3,29.91,NNW,331,0.0,0.0,24,0.00,,,0.00,VWS V14.01,2013-04-17 23:08:00,
2013-04-17 19:13:00,62.2,26.0,29.91,South,171,0.0,0.0,25,0.00,,,0.00,VWS V14.01,2013-04-17 23:13:00,
2013-04-17 19:18:00,61.9,25.7,29.91,South,184,0.0,0.0,25,0.00,,,0.00,VWS V14.01,2013-04-17 23:18:00,
2013-04-17 19:23:00,61.7,25.5,29.91,WNW,286,2.2,2.2,25,0.00,,,0.00,VWS V14.01,2013-04-17 23:23:00,
2013-04-17 19:28:00,61.3,25.2,29.91,SSW,192,0.0,3.6,25,0.00,,,0.00,VWS V14.01,2013-04-17 23:28:00,
2013-04-17 19:33:00,61.0,24.9,29.91,SSW,192,0.0,0.0,25,0.00,,,0.00,VWS V14.01,2013-04-17 23:33:00,
2013-04-17 19:38:00,60.8,24.8,29.91,SSW,192,0.0,0.0,25,0.00,,,0.00,VWS V14.01,2013-04-17 23:38:00,
2013-04-17 19:43:00,60.4,24.5,29.91,SSW,192,0.0,0.0,25,0.00,,,0.00,VWS V14.01,2013-04-17 23:43:00,
2013-04-17 19:48:00,60.1,24.2,29.94,SSW,192,0.0,0.0,25,0.00,,,0.00,VWS V14.01,2013-04-17 23:48:00,
2013-04-17 19:53:00,59.9,24.0,29.94,SSW,207,0.0,0.0,25,0.00,,,0.00,VWS V14.01,2013-04-17 23:53:00,
2013-04-17 19:58:00,59.5,23.7,29.94,WNW,292,0.0,0.0,25,0.00,,,0.00,VWS V14.01,2013-04-17 23:58:00,
2013-04-17 20:03:00,59.2,23.4,29.94,WNW,292,0.0,0.0,25,0.00,,,0.00,VWS V14.01,2013-04-18 00:03:00,
2013-04-17 20:08:00,59.0,23.2,29.94,WNW,292,0.0,0.0,25,0.00,,,0.00,VWS V14.01,2013-04-18 00:08:00,
2013-04-17 20:13:00,58.6,23.9,29.94,WNW,292,0.0,0.0,26,0.00,,,0.00,VWS V14.01,2013-04-18 00:13:00,
2013-04-17 20:18:00,58.3,23.6,29.94,WNW,292,0.0,0.0,26,0.00,,,0.00,VWS V14.01,2013-04-18 00:18:00,
2013-04-17 20:23:00,57.9,23.3,29.94,WNW,292,0.0,0.0,26,0.00,,,0.00,VWS V14.01,2013-04-18 00:23:00,
2013-04-17 20:28:00,57.7,23.1,29.94,WNW,292,0.0,0.0,26,0.00,,,0.00,VWS V14.01,2013-04-18 00:28:00,
2013-04-17 20:33:00,57.4,22.8,29.94,WNW,292,0.0,0.0,26,0.00,,,0.00,VWS V14.01,2013-04-18 00:33:00,
2013-04-17 20:38:00,57.2,22.6,29.94,WNW,292,0.0,0.0,26,0.00,,,0.00,VWS V14.01,2013-04-18 00:38:00,
2013-04-17 20:43:00,56.7,22.2,29.97,WNW,292,0.0,0.0,26,0.00,,,0.00,VWS V14.01,2013-04-18 00:43:00,
2013-04-17 20:48:00,56.3,21.9,29.97,WNW,292,0.0,0.0,26,0.00,,,0.00,VWS V14.01,2013-04-18 00:48:00,
2013-04-17 20:53:00,55.9,21.6,29.97,WNW,292,0.0,0.0,26,0.00,,,0.00,VWS V14.01,2013-04-18 00:53:00,
2013-04-17 20:58:00,55.4,22.0,29.97,WNW,292,0.0,0.0,27,0.00,,,0.00,VWS V14.01,2013-04-18 00:58:00,
2013-04-17 21:03:00,55.0,21.7,29.97,WNW,292,0.0,0.0,27,0.00,,,0.00,VWS V14.01,2013-04-18 01:03:00,
2013-04-17 21:08:00,54.9,21.5,29.97,WNW,292,0.0,0.0,27,0.00,,,0.00,VWS V14.01,2013-04-18 01:08:00,
2013-04-17 21:13:00,54.3,21.9,29.97,WNW,292,0.0,0.0,28,0.00,,,0.00,VWS V14.01,2013-04-18 01:13:00,
2013-04-17 21:18:00,53.8,21.5,29.97,WNW,292,0.0,0.0,28,0.00,,,0.00,VWS V14.01,2013-04-18 01:18:00,
2013-04-17 21:23:00,53.4,21.1,29.97,WNW,292,0.0,0.0,28,0.00,,,0.00,VWS V14.01,2013-04-18 01:23:00,
2013-04-17 21:28:00,53.2,21.8,29.97,WNW,292,0.0,0.0,29,0.00,,,0.00,VWS V14.01,2013-04-18 01:28:00,
2013-04-17 21:33:00,52.9,21.5,29.97,WNW,292,0.0,0.0,29,0.00,,,0.00,VWS V14.01,2013-04-18 01:33:00,
2013-04-17 21:38:00,52.5,21.2,29.97,WNW,292,0.0,0.0,29,0.00,,,0.00,VWS V14.01,2013-04-18 01:38:00,
2013-04-17 21:43:00,52.5,21.2,29.97,WNW,292,0.0,0.0,29,0.00,,,0.00,VWS V14.01,2013-04-18 01:43:00,
2013-04-17 21:48:00,52.3,21.8,29.97,WNW,292,0.0,0.0,30,0.00,,,0.00,VWS V14.01,2013-04-18 01:48:00,
2013-04-17 21:53:00,52.2,22.5,29.97,WNW,292,0.0,0.0,31,0.00,,,0.00,VWS V14.01,2013-04-18 01:53:00,
2013-04-17 21:58:00,52.0,22.3,29.97,WNW,292,0.0,0.0,31,0.00,,,0.00,VWS V14.01,2013-04-18 01:58:00,
2013-04-17 22:03:00,52.0,22.3,29.97,WNW,292,0.0,0.0,31,0.00,,,0.00,VWS V14.01,2013-04-18 02:03:00,
2013-04-17 22:08:00,51.8,22.1,29.97,WNW,292,0.0,0.0,31,0.00,,,0.00,VWS V14.01,2013-04-18 02:08:00,
2013-04-17 22:13:00,51.8,22.1,29.97,WNW,292,0.0,0.0,31,0.00,,,0.00,VWS V14.01,2013-04-18 02:13:00,
2013-04-17 22:18:00,51.8,22.9,29.97,WNW,292,0.0,0.0,32,0.00,,,0.00,VWS V14.01,2013-04-18 02:18:00,
2013-04-17 22:23:00,51.6,22.7,29.97,WNW,292,0.0,0.0,32,0.00,,,0.00,VWS V14.01,2013-04-18 02:23:00,
2013-04-17 22:28:00,51.6,22.7,30.00,WNW,292,0.0,0.0,32,0.00,,,0.00,VWS V14.01,2013-04-18 02:28:00,
2013-04-17 22:33:00,51.3,22.4,30.00,WNW,292,0.0,0.0,32,0.00,,,0.00,VWS V14.01,2013-04-18 02:33:00,
2013-04-17 22:38:00,50.9,22.8,30.00,WNW,292,0.0,0.0,33,0.00,,,0.00,VWS V14.01,2013-04-18 02:38:00,
2013-04-17 22:43:00,50.5,22.5,30.00,WNW,292,0.0,0.0,33,0.00,,,0.00,VWS V14.01,2013-04-18 02:43:00,
2013-04-17 22:48:00,50.4,23.1,30.00,WNW,292,0.0,0.0,34,0.00,,,0.00,VWS V14.01,2013-04-18 02:48:00,
2013-04-17 22:53:00,50.2,22.9,30.00,WNW,292,0.0,0.0,34,0.00,,,0.00,VWS V14.01,2013-04-18 02:53:00,
2013-04-17 22:58:00,50.0,22.8,30.00,WNW,292,0.0,0.0,34,0.00,,,0.00,VWS V14.01,2013-04-18 02:58:00,
2013-04-17 23:03:00,49.6,23.1,30.00,WNW,292,0.0,0.0,35,0.00,,,0.00,VWS V14.01,2013-04-18 03:03:00,
2013-04-17 23:08:00,49.6,23.1,30.00,WNW,292,0.0,0.0,35,0.00,,,0.00,VWS V14.01,2013-04-18 03:08:00,
2013-04-17 23:13:00,49.1,23.3,30.00,WNW,292,0.0,0.0,36,0.00,,,0.00,VWS V14.01,2013-04-18 03:13:00,
2013-04-17 23:18:00,48.7,23.0,30.00,WNW,292,0.0,0.0,36,0.00,,,0.00,VWS V14.01,2013-04-18 03:18:00,
2013-04-17 23:23:00,48.4,23.3,30.00,WNW,292,0.0,0.0,37,0.00,,,0.00,VWS V14.01,2013-04-18 03:23:00,
2013-04-17 23:28:00,48.0,23.0,30.00,WNW,292,0.0,0.0,37,0.00,,,0.00,VWS V14.01,2013-04-18 03:28:00,
2013-04-17 23:33:00,47.5,23.8,30.00,WNW,292,0.0,0.0,39,0.00,,,0.00,VWS V14.01,2013-04-18 03:33:00,
2013-04-17 23:38:00,47.3,23.6,30.00,WNW,292,0.0,0.0,39,0.00,,,0.00,VWS V14.01,2013-04-18 03:38:00,
2013-04-17 23:43:00,47.3,24.2,30.00,WNW,292,0.0,0.0,40,0.00,,,0.00,VWS V14.01,2013-04-18 03:43:00,
2013-04-17 23:48:00,47.1,23.5,30.00,WNW,292,0.0,0.0,39,0.00,,,0.00,VWS V14.01,2013-04-18 03:48:00,
2013-04-17 23:53:00,46.9,23.3,30.00,WNW,292,0.0,0.0,39,0.00,,,0.00,VWS V14.01,2013-04-18 03:53:00,
2013-04-17 23:58:00,46.8,23.7,30.00,WNW,292,0.0,0.0,40,0.00,,,0.00,VWS V14.01,2013-04-18 03:58:00,